Location: Borgo
(42.3939°N, 9.2791°E)
Time: 18:55:00
(UTC+00:00)

Cosmos 1763 Rocket - Pass Details

Date: 27 February 2020
Orbit: 732 x 781 km, 74.0° (Epoch: 29 March)

Event Time Altitude Azimuth Distance (km) Brightness Sun altitude
Rises 18:59:10 0° 214° (SSW) 3,202 7.1 -21.0°
Reaches altitude 10° 19:01:35 10° 219° (SW) 2,289 6.3 -21.4°
Maximum altitude 19:06:37 49° 294° (WNW) 986 4.4 -22.3°
Drops below altitude 10° 19:11:45 10° 10° (N) 2,331 6.0 -23.3°
Sets 19:14:14 0° 16° (NNE) 3,267 6.7 -23.7°
